This demonstration page uses our WeatherBlox Daily Observations layout. Learn more.

Left ArrowRight Arrow

Hourly Observations for July 22, 2020

Temp ( °F °C ) Dew Point ( °F °C ) Humidity (%) Winds ( mph kmh ) Pressure ( in mb ) Visibility ( mi km ) Precip ( " mm )
12:54 am 00:54 Mostly Clear 70 21.1 65 18.3 84 84 N 5 7 29.99 1016 10 16.0934 0 0
1:54 am 01:54 Clear 69 20.6 64 17.8 84 84 N 3 6 29.98 1015 10 16.0934 0 0
2:54 am 02:54 Clear 69 20.6 64 17.8 84 84 N 6 9 29.98 1015 10 16.0934 0 0
3:54 am 03:54 Clear 67 19.4 63 17.2 87 87 N 5 7 29.97 1015 10 16.0934 0 0
4:54 am 04:54 Clear 66 18.9 62 16.7 87 87 N 6 9 29.98 1015 10 16.0934 0 0
5:54 am 05:54 Mostly Cloudy 67 19.4 62 16.7 84 84 N 5 7 29.99 1016 10 16.0934 0 0
6:54 am 06:54 Partly Cloudy 66 18.9 62 16.7 87 87 N 5 7 30.01 1016 9 14.48406 0 0
7:54 am 07:54 Sunny 71 21.7 63 17.2 76 76 Calm 30.01 1016 9 14.48406 0 0
8:54 am 08:54 Mostly Sunny 74 23.3 64 17.8 71 71 ESE 5 7 30.01 1016 9 14.48406 0 0
9:54 am 09:54 Sunny 78 25.6 65 18.3 64 64 S 5 7 30.02 1017 10 16.0934 0 0
10:54 am 10:54 Sunny 81 27.2 62 16.7 53 53 VRB 7 11 30.03 1017 10 16.0934 0 0
11:54 am 11:54 Sunny 82 27.8 61 16.1 49 49 Calm 30.03 1017 10 16.0934 0 0
12:54 pm 12:54 Mostly Sunny 83 28.3 62 16.7 49 49 SE 6 9 30.02 1017 10 16.0934 0 0
1:54 pm 13:54 Sunny 81 27.2 64 17.8 57 57 SE 8 13 30.01 1016 10 16.0934 0 0
2:54 pm 14:54 Mostly Cloudy 81 27.2 62 16.7 53 53 ESE 8 13 30.02 1017 10 16.0934 0 0
3:54 pm 15:54 Sunny 83 28.3 66 18.9 57 57 SE 9 15 30.01 1016 10 16.0934 0 0
4:54 pm 16:54 Sunny 84 28.9 66 18.9 55 55 SE 8 13 29.98 1015 10 16.0934 0 0
5:54 pm 17:54 Sunny 84 28.9 67 19.4 57 57 SE 8 13 29.96 1014 10 16.0934 0 0
6:54 pm 18:54 Sunny 83 28.3 67 19.4 59 59 SE 9 15 29.96 1015 10 16.0934 0 0
7:54 pm 19:54 Sunny 81 27.2 68 20 65 65 ESE 8 13 29.96 1015 10 16.0934 0 0
8:54 pm 20:54 Clear 79 26.1 65 18.3 62 62 SE 8 13 29.97 1015 10 16.0934 0 0
9:54 pm 21:54 Mostly Cloudy 78 25.6 66 18.9 67 67 ESE 7 11 29.98 1015 10 16.0934 0 0
10:54 pm 22:54 Clear 77 25 67 19.4 71 71 SE 9 15 30 1016 10 16.0934 0 0
11:54 pm 23:54 Clear 76 24.4 67 19.4 74 74 SE 9 15 30.01 1016 10 16.0934 0 0

Powered by AerisWeather